(161) Athor
ephemeris date magn radius delta ra dec elong phase
Today5 Sep 202614.52.485 AU3.357 AU12h28m-02°56'25.5°10.1°
Opposition12 Jul 202711.62.072 AU1.080 AU19h42m-39°10'162.4°8.5°
(161) Athor - 2026-09-05
astro.vanbuitenen.nl


 
-1 year
-1 month
-1 day
Now
+1 day
+1 month
+1 year

The interactive orbit chart above shows the body's path through the solar system and its position at the given date. Green and blue lines are shown perpendicular to the ecliptic plane: Green if the path is above the ecliptic plane, blue if it is below. (Left-click and drag to rotate the view; Right-click and drag to move the view; Use scroll wheel to zoom in our out.)

The orbital elements of Athor are:

            e (Eccentricity)                : 0.1380661
            a (Semimajor axis)              : 2.3791190
            i (Inclination)                 : 9.05356
            Ω (Longitude of ascending node) : 18.42090
            ω (Argument of perihelion)      : 295.48466
            M (Mean anomaly)                : 234.97919
            Epoch                           : 2026 Jun 09

            L (Longitude of perihelion)     : -45.81435
            B (Latitude of perihelion)      : -8.16631
            P (Orbital period in years)     : 3.67            
        

The light curve chart below shows the estimated development of the minor planet's magnitude.


The all-sky chart below shows the path of the minor planet over the same period as the light curve. The current position is marked yellow.





The following chart shows the path of the minor planet in the next few days. The field of view is optimized for (~10x50) binoculars and finderscopes.




Ephemerides:
Date       Time       RA (2000)    DEC (2000)    delta   radius  elong  phase   PA    magn
2026-09-05 00:00 UT   12 28 08.3   -02 56 46     3.357    2.485   25.5   10.1   113   14.5 
2026-09-05 18:42 UT   12 29 21.3   -03 06 02     3.360    2.484   25.1    9.9   113   14.5 
2026-09-06 00:00 UT   12 29 42.0   -03 08 40     3.361    2.484   25.0    9.9   113   14.5 
2026-09-07 00:00 UT   12 31 15.9   -03 20 35     3.365    2.483   24.5    9.7   113   14.5 
2026-09-08 00:00 UT   12 32 50.1   -03 32 30     3.368    2.481   23.9    9.5   113   14.5 
2026-09-09 00:00 UT   12 34 24.5   -03 44 26     3.372    2.480   23.4    9.3   113   14.5 
2026-09-10 00:00 UT   12 35 59.2   -03 56 23     3.375    2.478   22.9    9.1   113   14.5 
2026-09-11 00:00 UT   12 37 34.1   -04 08 20     3.379    2.477   22.3    8.9   113   14.5 
2026-09-12 00:00 UT   12 39 09.3   -04 20 17     3.382    2.476   21.8    8.7   113   14.5 
2026-09-13 00:00 UT   12 40 44.8   -04 32 15     3.385    2.474   21.3    8.5   113   14.5 
2026-09-14 00:00 UT   12 42 20.5   -04 44 13     3.388    2.473   20.7    8.3   113   14.5 
2026-09-15 00:00 UT   12 43 56.5   -04 56 11     3.391    2.471   20.2    8.1   114   14.5 
2026-09-16 00:00 UT   12 45 32.7   -05 08 10     3.393    2.470   19.7    7.9   114   14.5 
2026-09-17 00:00 UT   12 47 09.1   -05 20 08     3.396    2.468   19.2    7.7   114   14.4 
2026-09-18 00:00 UT   12 48 45.8   -05 32 07     3.398    2.467   18.6    7.5   114   14.4 
2026-09-19 00:00 UT   12 50 22.8   -05 44 06     3.401    2.466   18.1    7.3   114   14.4 
2026-09-20 00:00 UT   12 51 60.0   -05 56 05     3.403    2.464   17.6    7.1   114   14.4 
2026-09-21 00:00 UT   12 53 37.4   -06 08 04     3.405    2.463   17.0    6.9   114   14.4 
2026-09-22 00:00 UT   12 55 15.1   -06 20 03     3.407    2.461   16.5    6.7   114   14.4 
2026-09-23 00:00 UT   12 56 53.1   -06 32 02     3.409    2.460   16.0    6.5   114   14.4 
2026-09-24 00:00 UT   12 58 31.3   -06 44 01     3.411    2.458   15.5    6.2   114   14.4 


    Terminology:
            
    delta:  distance between minor planet and earth in AU
    radius: distance between minor planet and sun in AU
    magn:   magnitude (brightness) estimate    
    ra:     right ascension in hours (24h = 360deg)
    dec:    declination in degrees
    elong:  elongation in degrees (angle sun-earth-minor planet)    
    phase:  phase angle in degrees (angle sun-minor planet-earth)        
    AU:     Astronomical Unit (mean distance between earth and sun: 149597870.7 km
    

Orbital elements provided by the MPC (Minor Planet Center).
Calculations by a modified version of AAPlus, a C# implementation of the AA+ project by PJ Naughter from the algorithms presented in the book "Astronomical Algorithms" by Jean Meeus.
NGC2000 dso catalog and star labels from VizieR as provided by the Strasbourg astronomical Data Center.
Tycho2 catalog from the ESO archive.